Location: Meanaryar
(48.4161°N, 4.7315°W)
Time: 05:36:57
(UTC+00:00)

SPOT 3 Rocket - Pass Details

Date: 18 September 2020
Orbit: 780 x 794 km, 98.8° (Epoch: 23 October)

Event Time Altitude Azimuth Distance (km) Brightness Sun altitude
Exits shadow 20:03:39 27° 129° (SE) 1,467 4.4 -16.8°
Maximum altitude 20:06:10 50° 68° (ENE) 988 3.8 -17.2°
Drops below altitude 10° 20:11:09 10° 354° (N) 2,346 6.4 -18.0°
Sets 20:13:32 0° 350° (N) 3,279 7.3 -18.3°
